Tracking 19149 objects as of 22-Apr-2018
HD Live streaming from Space Station
objects crossing your sky now

BREEZE-M DEB (TANK)

Track BREEZE-M DEB (TANK) now!


NORAD ID: 32374
Int'l Code: 2007-058B
Perigee: 424.3 km
Apogee: 34,407.0 km
Inclination: 46.5 °
Period: 608.5 minutes
Semi major axis: 23786 km
RCS: 5.0489 m2 (large)
Launch date: December 9, 2007
Source: Commonwealth of Independent States (former USSR) (CIS)
Launch site: TYURATAM MISSILE AND SPACE COMPLEX (TTMTR)

Note: This is SATELLITE DEBRIS
aabbcc
Your satellite tracking list
Your tracking list is empty




NASA's NSSDC Master Catalog

Two Line Element Set (TLE):
1 32374U 07058B   18111.73426200 +.00000084 +00000-0 +24762-3 0  9991
2 32374 046.4600 088.6460 7143246 000.5481 359.7990 02.36648559088071
Source of the keplerian elements: AFSPC